Location: Unspecified
(0.0000°N, 0.0000°E)
Time: 18:59:04
(UTC+00:00)

Vanguard 3 - Pass Details

Date: 28 November 2019
Orbit: 508 x 3263 km, 33.3° (Epoch: 08 December)

Event Time Altitude Azimuth Distance (km) Brightness Sun altitude
Rises 19:01:59 0° 307° (NW) 6,894 12.3 -17.2°
Reaches altitude 10° 19:07:05 10° 308° (NW) 5,590 11.8 -18.4°
Maximum altitude 19:22:46 84° 35° (NE) 1,876 8.8 -22.0°
Enters shadow 19:30:24 15° 123° (ESE) 2,970 9.7 -23.7°
Drops below altitude 10° 19:31:22 10° 123° (ESE) 3,255 - -24.0°
Sets 19:33:34 0° 124° (ESE) 3,956 - -24.5°
